Dewpoint
42 41 42 42 42 42 43 43 42 43 43 42 42 43 43 43 43 39 37 38 32 27 28 32 32 25 24 26 21 24 24 26 26 23 24 24 24 27 26 26 25 21 22 19 21 18 16 23 21 19 25 26 24 22
42 42 42 42 43 43 43 43 43 43 43 43 43 43 42 43 43 40 35 38 36 30 28 33 32 30 27 28 28 30 26 27 26 25 27 27 24 25 23 18 27 21 24 20 21 18 24 25 25 28 28 25 24 22
42 43 42 43 43 43 43 43 43 43 43 43 43 42 42 43 43 41 36 35 33 27 27 30 30 35 35 33 31 28 31 30 29 31 29 29 27 29 25 21 22 25 27 21 20 23 24 24 25 25 25 24 25 25
43 42 43 43 43 43 42 43 43 43 43 43 42 42 42 42 42 39 36 36 34 30 24 27 31 29 33 35 32 31 30 30 31 31 28 26 28 33 27 24 21 24 25 22 21 23 23 24 25 25 25 26 25 24
44 43 41 42 42 42 43 42 43 43 42 42 41 41 41 41 42 39 37 37 38 29 23 25 29 31 31 32 30 30 30 29 28 26 26 29 33 32 26 24 20 27 23 18 18 22 22 22 26 26 24 23 23 23
43 42 42 42 42 42 42 42 43 42 42 41 41 40 42 42 40 35 29 38 39 36 26 20 29 29 30 30 30 30 30 30 29 27 26 29 36 28 24 20 26 25 28 26 24 26 24 25 26 26 24 23 23 22
42 42 42 42 42 42 42 42 42 42 42 42 41 42 42 41 39 35 31 40 41 36 27 21 23 30 33 31 31 31 30 28 29 28 27 32 32 27 21 17 26 25 24 25 25 24 23 24 23 25 25 25 23 18
42 42 41 41 42 41 42 42 42 42 41 41 42 42 42 40 38 34 37 43 39 33 31 20 22 29 34 27 27 32 28 29 28 26 28 30 32 22 18 24 28 28 26 25 26 27 23 24 24 23 21 18 17 16
41 41 41 41 41 41 41 42 42 41 42 42 42 40 37 35 32 34 41 40 38 33 25 21 19 24 32 29 29 29 29 20 28 25 27 31 27 19 17 25 25 26 25 25 24 23 23 22 20 19 18 17 16 14
41 41 41 41 41 41 41 41 42 42 42 41 37 31 28 32 39 41 35 28 28 30 33 23 25 22 31 25 25 25 26 24 23 27 29 25 22 26 24 25 26 29 24 25 24 23 23 20 19 19 18 16 14 13
41 41 41 41 41 41 41 41 41 41 39 35 33 32 39 42 38 34 29 26 26 23 26 25 25 21 30 23 23 27 22 24 21 26 28 25 20 24 28 29 31 32 29 26 23 23 22 21 19 16 14 13 10 9
39 39 40 41 41 41 41 41 40 36 35 36 39 40 39 35 32 26 23 24 26 21 23 23 24 27 29 31 25 26 22 22 18 32 28 21 19 26 27 26 28 23 24 23 22 21 20 18 17 15 12 10 9 7
39 38 38 40 40 39 41 41 40 40 41 40 37 32 30 31 23 21 15 21 15 22 25 23 21 27 26 27 23 24 15 15 29 24 24 20 24 26 24 24 22 22 21 21 20 19 17 16 14 12 8 2 3 2
39 38 38 40 40 40 40 40 41 39 37 32 28 24 24 21 23 17 18 17 23 22 24 24 23 25 24 23 18 13 20 28 17 17 19 18 23 23 22 22 20 19 18 17 15 14 11 8 2 -1 0 -3 -0 -4
39 39 38 40 40 40 40 39 38 37 33 29 30 21 23 23 28 30 32 29 27 24 26 25 25 25 21 25 27 23 21 19 16 15 15 20 22 22 21 19 16 14 12 11 9 7 2 2 3 -2 -8 -6 -3 -7
39 38 36 39 39 40 38 36 35 36 32 30 29 27 29 28 28 30 31 29 32 28 25 27 24 19 22 19 24 16 17 14 14 16 21 20 20 19 19 18 16 13 11 8 7 6 5 2 3 2 -3 -5 -8 -6
36 32 39 39 39 37 36 32 31 29 29 26 28 28 31 31 29 30 31 32 32 26 21 26 16 17 25 22 22 21 13 20 21 24 25 24 21 15 14 14 14 13 10 8 5 6 2 1 3 6 5 2 4 6
32 37 39 40 35 33 32 30 31 30 25 27 26 27 30 32 32 31 32 32 32 29 26 23 28 26 22 19 15 15 17 24 25 25 24 22 19 14 15 12 12 12 10 8 8 7 6 6 9 9 11 12 11 12
36 38 39 36 31 26 20 26 30 23 26 28 28 29 30 30 31 30 31 32 32 31 27 25 24 20 16 20 21 14 11 16 21 19 21 21 19 15 13 13 12 11 11 10 12 11 12 13 13 14 15 16 12 12
40 39 38 37 35 27 25 26 30 27 22 21 29 28 29 28 29 30 30 31 31 31 28 21 19 17 20 20 22 19 16 18 20 19 17 16 18 16 15 15 15 14 14 15 15 15 15 15 16 15 13 14 8 6
38 38 38 34 30 32 31 27 25 26 26 23 28 28 26 28 28 28 28 30 29 28 21 20 16 15 17 20 23 23 21 21 17 17 15 15 17 18 18 18 17 16 15 15 14 11 12 13 13 12 2 0 -0 3
37 37 33 31 28 28 28 31 29 27 24 27 28 27 19 20 17 24 25 25 27 23 22 20 20 19 21 23 22 24 23 22 20 19 18 19 18 18 18 17 17 13 13 11 13 10 10 12 12 10 3 -2 1 1
35 33 29 29 25 24 22 32 26 25 18 26 27 22 16 16 20 28 22 26 23 21 22 22 23 25 24 24 24 24 23 21 20 19 19 19 19 17 17 16 15 12 11 12 15 11 6 8 7 5 3 -0 -5 -7
33 27 24 22 23 14 24 25 29 26 22 23 24 20 20 21 27 23 23 21 19 17 20 22 23 22 22 23 20 21 22 21 19 16 19 19 17 17 17 17 16 17 15 16 16 12 11 8 7 4 -4 -8 -11 -10
16 12 25 18 24 22 18 18 21 21 12 22 22 17 23 25 17 21 18 17 19 11 11 17 20 20 17 12 15 17 21 21 19 18 15 19 16 19 17 16 14 14 16 14 10 9 2 -1 -5 -4 -8 -8 -6 -10
16 14 22 21 14 18 18 13 14 15 19 17 13 19 16 21 19 14 17 16 25 16 23 22 16 19 19 20 18 18 19 22 21 18 20 21 20 16 14 13 11 11 11 13 11 8 4 -2 -4 -4 -7 -6 -9 -11
20 20 23 27 24 24 17 16 21 19 19 18 20 14 12 12 10 14 13 17 22 25 24 26 26 25 23 21 21 21 21 20 19 18 16 15 15 16 17 14 12 8 4 8 7 7 3 -0 -2 -4 -4 -13 -13 -13
17 18 17 22 22 21 16 13 13 11 11 18 17 11 13 14 11 7 10 16 20 25 24 22 22 22 19 19 18 16 14 14 14 14 14 13 11 10 11 10 9 9 2 -1 0 2 2 -0 -2 -4 -4 -7 -14 -17
14 13 16 12 16 19 18 15 14 13 15 15 13 7 7 8 4 4 8 14 21 20 15 14 16 17 17 18 17 17 16 18 18 14 10 7 7 6 4 5 3 1 3 4 8 3 0 -1 -3 -4 -6 -8 -13 -16
12 17 12 10 17 16 8 10 8 7 9 9 11 11 8 3 2 4 10 9 11 5 3 6 12 17 16 14 14 13 14 15 15 16 12 9 8 6 3 4 2 1 4 5 5 4 7 -2 -2 -11 -12 -15 -20 -24
21 20 14 12 8 6 8 11 13 15 8 5 4 3 2 -1 2 2 5 7 8 11 13 14 14 15 15 14 14 14 11 12 14 12 10 10 7 4 3 3 2 2 1 0 -1 -3 -7 -11 -11 -14 -17 -20 -27 -30
20 19 13 9 8 12 16 16 15 13 5 5 5 -3 -1 -1 1 -1 7 7 11 10 10 13 13 10 14 15 15 14 13 12 11 10 9 9 7 5 4 3 2 0 -2 -5 -7 -10 -11 -13 -15 -18 -22 -28 -32 -33
15 11 13 12 11 11 12 14 13 11 7 3 -1 -5 -2 1 1 1 7 8 8 9 9 11 13 14 12 12 10 11 11 11 12 13 10 8 6 5 3 1 -0 -2 -5 -9 -11 -12 -12 -14 -20 -27 -29 -32 -34 -35
Lifted_Index
8 8 8 8 8 8 8 8 8 7 7 7 7 7 6 6 6 7 7 7 6 6 6 7 7 8 7 6 4 4 3 3 2 1 1 1 2 2 2 3 2 2 1 1 1 2 3 5 5 5 6 7 8 8
7 7 8 8 8 8 8 8 7 7 7 7 7 6 6 6 6 7 7 7 7 7 7 7 7 7 7 6 5 4 3 3 3 2 1 1 2 2 2 3 3 2 2 2 2 3 5 6 6 7 8 8 8 8
6 7 7 7 7 7 7 7 7 7 7 7 6 6 6 6 6 7 7 7 7 7 7 7 7 7 6 6 5 4 4 3 3 3 2 2 2 2 2 2 3 3 3 3 3 4 6 7 8 9 9 9 9 9
6 6 6 7 7 7 7 7 7 7 7 7 6 6 6 6 6 7 7 7 7 7 7 6 6 6 6 5 5 4 4 3 3 3 2 2 2 2 2 2 3 4 4 4 4 5 6 7 8 9 9 9 10 10
5 5 6 6 6 6 6 6 7 7 7 6 6 6 6 7 7 7 7 7 7 7 7 6 6 5 5 5 4 3 3 3 3 3 2 2 2 3 3 2 3 4 4 4 5 6 7 7 9 9 9 9 10 10
5 5 6 6 6 6 6 6 6 6 6 6 6 6 6 6 7 7 7 7 7 7 7 6 5 5 4 4 3 2 2 3 3 3 2 2 3 3 3 3 4 5 6 6 6 7 7 8 9 10 10 10 10 10
5 5 5 6 6 6 6 6 6 6 6 6 6 6 6 6 6 6 6 6 7 7 7 6 5 5 4 3 3 2 2 2 2 2 2 2 2 3 2 3 4 6 7 7 7 8 8 8 9 10 10 10 10 11
5 5 6 6 6 6 6 6 6 6 6 6 6 6 6 6 6 6 6 6 7 7 6 6 5 4 4 3 3 2 2 2 2 2 2 2 2 2 2 3 5 6 6 7 8 8 8 8 9 9 10 10 10 10
5 5 6 6 6 6 6 6 6 6 6 6 6 6 6 6 6 6 6 6 7 6 6 5 4 4 3 3 3 2 2 2 2 2 2 2 2 2 3 4 5 6 6 7 7 8 8 8 9 9 10 10 10 9
5 5 6 6 6 6 6 6 6 6 6 6 6 6 6 6 6 6 6 6 6 6 6 5 4 3 3 3 2 2 2 2 2 1 1 1 1 2 3 4 6 7 7 7 7 8 8 8 8 9 9 10 10 11
5 6 6 6 6 6 6 6 6 6 6 6 6 6 5 5 5 5 5 5 5 5 5 5 4 4 3 3 2 2 2 2 2 1 1 1 1 2 3 4 6 7 8 8 8 9 9 9 9 9 10 11 12 12
6 6 6 6 6 6 6 6 6 6 6 6 5 5 5 5 5 5 5 5 5 4 4 4 4 4 3 2 2 2 2 2 2 1 1 1 1 2 3 4 6 7 8 8 9 9 10 10 10 10 11 12 13 13
7 7 7 6 6 6 6 6 6 6 6 5 4 4 4 4 4 4 4 4 4 4 4 4 4 3 3 3 2 2 2 2 2 1 1 1 1 2 3 4 5 7 8 8 9 9 10 10 11 12 12 13 14 14
7 7 7 7 6 6 6 6 6 6 6 5 4 3 3 3 3 4 4 3 3 3 3 3 3 3 3 3 3 2 2 2 2 1 1 1 1 2 3 4 5 6 7 8 9 10 10 11 12 12 13 14 14 15
7 7 7 7 7 7 7 7 7 6 5 4 4 3 3 3 3 3 3 3 2 2 2 3 3 3 3 3 3 2 2 2 2 1 1 1 2 3 4 5 6 7 8 8 9 10 11 12 12 13 14 15 15 16
7 7 7 7 7 7 7 8 7 6 5 4 4 3 3 3 3 3 2 2 2 2 2 2 2 2 2 2 2 2 1 1 1 1 2 2 2 3 4 5 6 7 8 9 10 11 12 12 13 13 14 15 16 16
8 8 7 7 7 8 8 8 7 6 5 4 3 3 3 3 2 2 2 2 2 2 2 2 2 2 1 1 1 1 1 1 1 2 2 3 3 4 5 6 7 8 9 10 11 11 12 13 13 13 14 15 16 16
7 7 7 7 7 8 8 8 7 6 5 4 3 3 2 2 2 2 2 2 2 2 2 2 1 1 1 1 0 0 1 1 1 2 3 3 4 5 6 7 8 9 9 10 11 12 12 13 13 14 14 15 16 16
6 6 6 6 7 7 7 7 6 5 4 3 3 2 2 2 2 2 2 2 2 2 2 2 2 1 1 1 0 1 1 1 2 2 3 3 4 5 6 8 8 9 10 11 12 12 13 13 14 14 15 16 16 16
5 6 6 6 7 7 7 6 5 4 3 3 3 2 2 2 2 2 2 2 2 2 2 2 2 2 1 1 1 1 1 2 2 2 2 3 4 5 6 8 9 10 10 11 12 12 13 13 14 15 16 16 17 17
6 6 6 7 7 7 6 6 5 4 3 2 2 2 1 1 1 1 2 2 2 2 2 2 2 2 2 2 2 2 2 2 2 2 3 3 4 5 6 7 9 9 10 11 12 12 13 14 15 16 17 17 17 17
6 6 7 7 7 6 5 5 4 3 3 2 2 2 1 1 1 1 2 2 2 2 2 2 3 3 3 3 3 3 3 3 3 3 3 4 4 5 6 8 9 9 10 11 12 13 13 14 16 17 17 17 18 18
6 6 7 7 6 6 5 4 4 3 3 3 2 2 2 1 1 1 2 2 2 2 2 3 3 3 3 3 3 3 3 3 3 4 4 5 5 6 7 9 10 11 11 12 13 14 14 15 16 17 17 18 18 18
6 6 6 6 6 5 4 4 3 3 3 3 3 2 2 2 2 2 2 2 2 2 2 3 3 3 3 3 3 4 4 4 4 5 5 6 6 7 9 10 11 12 13 14 14 15 15 16 17 17 18 18 18 18
6 6 6 5 5 5 4 3 3 3 3 3 3 3 2 2 2 2 2 2 2 2 2 3 3 3 3 3 4 4 5 6 6 6 7 8 8 9 10 11 12 13 15 15 15 15 16 17 17 18 18 19 19 19
5 5 5 4 4 4 4 3 3 2 2 2 3 3 2 2 2 2 2 2 2 2 3 3 3 3 3 4 5 6 7 8 8 8 9 10 11 11 11 12 12 14 15 16 16 16 17 17 18 18 19 19 19 19
4 4 4 3 3 3 3 3 3 2 2 2 2 2 2 2 2 2 2 2 2 3 3 4 4 5 5 6 7 8 9 10 10 10 11 12 13 13 13 13 14 15 16 17 17 17 18 18 19 19 19 19 20 20
4 3 3 3 3 3 3 3 3 3 3 3 2 2 2 2 2 2 2 3 3 4 4 5 6 7 8 8 9 10 11 11 11 11 12 13 13 14 15 15 16 16 17 18 18 19 19 20 20 20 20 20 20 20
3 3 3 2 2 2 2 2 2 3 3 3 2 2 2 2 3 3 3 4 4 4 5 6 7 8 9 10 11 11 12 12 12 11 11 12 13 14 15 16 17 18 18 19 20 20 21 21 21 20 20 20 21 21
4 4 3 3 2 2 2 2 3 3 3 3 3 2 2 3 4 4 5 5 5 5 6 7 8 9 10 10 11 12 13 13 13 13 12 12 13 15 16 17 18 19 20 20 20 21 21 21 21 21 21 21 21 21
4 3 3 3 2 2 3 3 3 3 3 3 3 3 3 3 4 5 6 6 6 6 7 8 9 10 11 11 12 12 13 14 14 14 14 14 15 16 17 18 19 20 21 21 21 21 21 21 20 20 20 20 20 20
3 3 3 3 3 3 3 3 3 3 3 3 3 3 3 3 4 6 8 8 8 8 9 10 11 12 12 13 13 13 14 15 15 15 15 16 17 18 19 20 21 21 21 21 21 21 21 20 20 20 20 20 20 21
4 3 3 3 3 3 4 4 3 3 3 3 3 3 4 3 4 6 9 10 10 10 10 11 12 13 13 14 14 14 15 15 16 16 16 17 18 19 20 21 22 22 21 21 21 21 20 20 20 20 20 20 21 21